Terug naar catalogus

ANIK F2

ActiefCommunicatieGEO
NORAD 28378·PAYLOAD·🇨🇦 Canada

Gelanceerd Jul 18, 2004 vanaf Guiana Space Centre

Loading…

TLE

VersSource: CelesTrak SupGP

Epoch: Sep 14, 2026, 07:59 UTC

1 28378C 04027A   26257.33333333  .00000040  00000+0  00000+0 0  2576
2 28378   3.5121  78.2621 0003121  80.2639 203.6897  1.00271759    11

Volg ANIK F2 in realtime met AllMySat

Download on the App Store